Погода Нижняя Пеша

Поиск расширенной информации на нашем сайте:

Полезная информация:

Новости сайта



02.01.2020
Опубликован Долгосрочный прогноз погоды по городам России и ближнего зарубежья на январь 2020 года.
Карты: Прогноз на январь и февраль 2020 года, Сравнение прогнозируемой аномалии приземной температуры воздуха на январь 2020 года по разным моделям.




Погода Нижняя Пеша - сегодня

Время (UTC), дата Ветер
(°,м/с) 
Видим.   Явления Облачность Т
(°С)
Тd
(°С)
f(%) Тe
(°С)
Pmin
(гПа)
dP
(гПа)
Po
(мм)
O2
(г/м3)
Тmin Tmax R s Состояние
почвы
15 29.11.20 200 (Ю) 7{15}  10 км    8/0 средняя 
[Ac trans]
-7.4 -10 82 -13  1034.8  -1.1  775  322    -7.3       
18 29.11.20 210 (ЮЗ) 6{14}  10 км    10/10 270 м 
[St]
-7.2 -8.1 93 -12  1034.2  -0.6  774  321           
21 29.11.20 210 (ЮЗ) 6{12}  10 км    10/10 240 м 
[St]
-6.2 -7 94 -11  1033.8  -0.4  774  320           
00 30.11.20 220 (ЮЗ) 7{14}  10 км    10/10 240 м 
[St]
-5.4 -6.4 93 -10  1033.6  -0.2  774  319           
03 30.11.20 200 (Ю) 6{12}  10 км    10/10 210 м 
[St]
-4.4 -5 96 -9  1032.9  -0.7  773  317    -7.4    10  равномерный
сухой снег
100% 
06 30.11.20 200 (Ю) 5{11}  20000 м    10/10 270 м 
[St]
-3.4 -4.8 90 -7  1031.7  -1.2  772  316           
09 30.11.20 190 (Ю) 6{11}  20000 м  позёмок{ливн. осадки}  10/10 240 м 
[St]
-3.5 -4.9 90 -8  1030.8  -0.9  772  316           
12 30.11.20 200 (Ю) 5{11}  10 км  {ливн. осадки}  10/10 240 м 
[St]
-3 -4.3 91 -7  1030.3  -0.5  771  315           
15 30.11.20 190 (Ю) 6{11}  10 км    10/10 300 м 
[St]
-2.6 -4.2 89 -7  1028.7  -1.5  770  314    -2.6  0.0     
18 30.11.20 190 (Ю) 5{13}  10 км    10/10 270 м 
[St]
-2.8 -4.4 89 -6  1028.6  -0.1  770  314           
21 30.11.20 180 (Ю) 6{11}  10 км    10/10 420 м 
[St]
-1.9 -4 86 -6  1026.8  -1.8  769  312           
00 01.12.20 190 (Ю) 6{12}  10 км    10/10 360 м 
[St]
-1.5 -3.5 86 -5  1024.6  -2.2  767  311           
03 01.12.20 190 (Ю) 6{12}  10 км    10/10 420 м 
[St]
-0.8 -2.7 87 -4  1022.6  -2  766  310  -3      10  равномерный
сухой снег
100% 
06 01.12.20 190 (Ю) 7{13}  4000 м  слаб. ливневой снег  10/10 360 м кучево-дожд. 
[Cb cap]
-0.4 -1.6 92 -4  1021.7  -0.9  765  309           
09 01.12.20 190 (Ю) 6{14}  20000 м  слаб. ливневой снег  10/10 400 м кучево-дожд. 
[Cb cap]
-0.6 -1.5 94 -4  1021  -0.7  764  309           
12 01.12.20 200 (Ю) 6{14}  10 км  в посл. час ливневой снег  10/10 420 м кучево-дожд. 
[Cb cap]
-0.9 -2.2 91 -5  1020.2  -0.8  764  309           
15 01.12.20 190 (Ю) 6{14}  10 км    10/10 540 м 
[Sc]
-1 -1.4 97 -5  1019.8  0.4  764  309    +0  0.3     
21 01.12.20 210 (ЮЗ) 6{12}  10 км    10/10 1410 м 
[Sc]
-1.3 -3 88 -5  1019.3  0.6  763  309           
00 02.12.20 210 (ЮЗ) 6{14}  10 км    10/10 1410 м 
[Sc]
-1 -4.6 77 -5  1019.7  0.4  764  309           
03 02.12.20 210 (ЮЗ) 6{14}  10 км    10/10 1410 м 
[Sc]
-1 -4.6 77 -5  1019.7  0.4  764  309           
06 02.12.20 220 (ЮЗ) 6{12}  20000 м    9/9 900 м 
[Sc]
-1.3 -2.7 90 -5  1020.9  764  310           
09 02.12.20 220 (ЮЗ) 4{11}  20000 м    9/9 570 м 
[Sc]
-1.1 -2.7 89 -4  1022.1  1.2  765  310           
12 02.12.20 230 (ЮЗ) 10 км    10/10 360 м 
[St]
-0.8 -1.8 93 -3  1023.3  1.2  766  310           
15 02.12.20 220 (ЮЗ) 10 км    9/9 1260 м 
[Sc]
-2.2 -2.8 96 -5  1024.2  0.9  767  312    -0.7       
18 02.12.20 210 (ЮЗ) 10 км    10/10 1050 м 
[Sc]
-1.1 -1.8 95 -4  1024.6  0.4  767  311           
Время (UTC), дата Ветер
(°,м/с) 
Видим.   Явления Облачность Т
(°С)
Тd
(°С)
f(%) Тe
(°С)
Pmin
(гПа)
dP
(гПа)
Po
(мм)
O2
(г/м3)
Тmin Tmax R s Состояние
почвы

Для получения пояснительной информации подведите курсор к названию столбца.

ПОГОДА Нижняя Пеша - архив

Всё, что Вы хотите узнать о погоде Нижняя Пеша - удобно и подробно!

Выберите нужную дату (начиная с 1 января 2019* года) и нажмите кнопку "Найти".
Будут отображены архивные сводки погоды по пункту Нижняя Пеша, начиная с указанной даты.


Отображать данные в формате CSV (для использования в таблицах Excel)


Внимание! Наш архив погоды предназначен исключительно для личного некоммерческого использования в познавательных целях. Если Вам необходимы официальные справки о состоянии погоды (для производственных, юридических, коммерческих и т.п. целей), обращайтесь в органы Росгидромета.

*Примечание: данная дата относится к архиву по метеостанциям СССР (Россия, СНГ, Балтия).
Архив по метеостанциям Зарубежной Европы и Азии (кроме Китая) хранится 10 дней, по другим регионам земного шара (Китай, Африка, Америка, Австралия, Океания) - 1 день.

Нижняя Пеша - район местоположения метеостанции


Название, широта, долгота, высота метеостанции:
Нижняя Пеша 66.8°ш. 47.8°д. 9 м над ур. моря [Российская Федерация]

Дополнительная информация

В oтличие oт бoльшинства пoгoдных сайтoв мы публикуем пoдрoбную метеoинфoрмацию в детальнoм прoфессиoнальнoм фoрмате.

Характеристики температуры и влажнoсти вoздуха измеряются на высoте 2 м в тени вдали oт зданий и деревьев.
Скoрoсть ветра измеряется на высoте 10 м (на урoвне рoста челoвека скoрoсть ветра ниже в 1.5-2 раза). Если метеoстанция нахoдится в гoрoде или в лесу, тo скoрoсть ветра занижена на 2-4 м/с пo сравнению с oткрытым местoм. Скoрoсть ветра над акватoриями крупных рек и oзёр, а также на вершинах хoлмoв на 2-5 м/с выше, чем в oбычных услoвиях.
Атмoсфернoе давление в разных тoчках местнoсти мoжет значительнo oтличаться oт давления на метеoстанции, в зависимoсти oт услoвий рельефа (при пoдъёме на 10 м давление пoнижается примернo на 1 мм рт.ст.).